STARLINK-36323, 68259

Orbit data source: Space-Track

STARLINK-36323, 68259 is a payload satellite owned by SpaceX/Seattle (US) in LEO that was launched on Tue, 17 Mar 2026 UTC via an FALCON 9 launch vehicle from the Air Force Eastern Test Range (AFETR). Payload-class satellites include a variety of spacecraft equipped with specific instruments for various scientific and technological missions. These include communications satellites like Starlink; space stations such as the ISS; scientific satellites like the Hubble; Earth observation satellites from companies like Planet Labs, Umbra, and HawkEye 360; GPS; miniature CubeSats for education and research; and military/defense satellites.

Loading next visibility...
Identifier
68259, 2026-054AD
Orbit
LEO
Country
Flag of USUS
Related business
Manufacturer
SpaceX/Seattle
Mission
Operational spacecraft
Bus & Motor
STARLINK V2MO, Unknown motor
Mass
575 kg wet, ~530 kg dry
Launch date (UTC)
2026-03-17 (2 months ago)
Launch vehicle
FALCON 9
Launch site
Air Force Eastern Test Range (AFETR)
Object type
Payload
Rocket body
Debris
Shape & HBR
Unknown shape, 17.7 m
Radar Cross Section
RCS unknown

Expand to show TLE details & history
Last TLE update: 9 hours ago

TLE from 9 hours ago
0 STARLINK-36323
1 68259U 26054AD  26145.41072785  .00039976  00000-0  92227-3 0  9998
2 68259  53.1596 298.0122 0001740  94.3261 265.7943 15.42192486 10775
Epoch: 2026-05-25T09:51Z
TLE epoch observation values (Epoch: 2026-05-25T09:51:26.886Z)
Latitude
-0.00008°
Longitude
-92.84879°
Altitude
440.631 km
Speed
7.649 km/s
True Right ascension
19h 52m 02s
True Declination
0° 00' 00"
Sunlit
Object was in full shadow at epoch
Visualization orbit readout
Latitude
Unknown
Longitude
Unknown
Altitude
Unknown
Speed
Unknown
Apparent Right ascension
Unknown
Apparent Declination
Unknown
Sunlit
N/A
Visualization observer readout
Local Sidereal Time
03:53:19
Azimuth
Unknown
Elevation
Unknown
Doppler factor
Unknown
Orbital elements
Apogee altitude
441.084 km
Perigee altitude
438.711 km
Semi-major axis
6,818.035 km
Eccentricity
0.00017
Inclination
53.1596°
RAAN
298.0122°
Arg. of periapsis
94.3261°
True anomaly
265.77442°
Mean anomaly
265.7943°
Eccentric anomaly
265.78436°
Mean motion
3.85527 °/min
Orbital period
93.38 mins
BSTAR
0.00092227
Loading maneuver chart data...
Computing Atmospheric mass density...
Loading historical data...
Loading historical data...
Loading historical data...
Loading historical data...
Loading historical data...
Loading historical data...
Loading historical data...

Documentation

Showing up to 5 results
|